CFG9DU LEBL-EDDF

Flight info

Callsign CFG9DU
Flight time 1h 39m
Altitude 36000
Route DALIN DCT PIVUS DCT DIBER DCT ADITA DCT MAXIR DCT LUSOL DCT BODRU DCT OKTET DCT IRMAR DCT KINES DCT VANAS DCT ESOKO DCT GODRA DCT LADOL T163 EMPAX EMPAX5B
Aircraft A21N/M-SBDE3FGHIJ1J4J7LORVWXYZ/SB2D1G1

Departure

Time 2026-05-04 14:35
Airport Josep Tarradellas Barcelona-El Prat Airport (LEBL)

Arrival

Time 2026-05-04 16:14
Airport Frankfurt Main Airport (EDDF)
Time Latitude Longitude Altitude Speed Heading
2026-05-04 14:19 41.30096 2.07611 20 ft 2 kts 338°
2026-05-04 14:19 41.30083 2.07618 20 ft 2 kts 336°
2026-05-04 14:20 41.30072 2.07625 20 ft 0 kts 336°
2026-05-04 14:20 41.30060 2.07632 20 ft 2 kts 321°
2026-05-04 14:20 41.30050 2.07647 20 ft 2 kts 302°
2026-05-04 14:21 41.30042 2.07685 20 ft 2 kts 265°
2026-05-04 14:21 41.30045 2.07704 20 ft 1 kts 247°
2026-05-04 14:21 41.30048 2.07712 20 ft 1 kts 242°
2026-05-04 14:21 41.30049 2.07714 20 ft 0 kts 243°
2026-05-04 14:23 41.30044 2.07703 20 ft 2 kts 235°
2026-05-04 14:24 41.29996 2.07690 20 ft 9 kts 202°
2026-05-04 14:24 41.29951 2.07621 20 ft 12 kts 244°
2026-05-04 14:24 41.29901 2.07475 20 ft 22 kts 245°
2026-05-04 14:24 41.29834 2.07287 20 ft 21 kts 245°
2026-05-04 14:25 41.29779 2.07103 20 ft 21 kts 246°
2026-05-04 14:25 41.29651 2.06732 20 ft 23 kts 245°
2026-05-04 14:25 41.29580 2.06523 20 ft 24 kts 245°
2026-05-04 14:26 41.29511 2.06323 20 ft 23 kts 245°
2026-05-04 14:26 41.29435 2.06144 20 ft 20 kts 208°
2026-05-04 14:26 41.29301 2.06148 20 ft 19 kts 161°
2026-05-04 14:26 41.29176 2.06220 20 ft 19 kts 155°
2026-05-04 14:27 41.29060 2.06316 20 ft 21 kts 123°
2026-05-04 14:27 41.29007 2.06493 20 ft 20 kts 103°
2026-05-04 14:27 41.29046 2.06673 20 ft 20 kts 66°
2026-05-04 14:27 41.29108 2.06853 20 ft 22 kts 65°
2026-05-04 14:28 41.29174 2.07044 20 ft 22 kts 66°
2026-05-04 14:28 41.29241 2.07240 20 ft 23 kts 66°
2026-05-04 14:28 41.29311 2.07441 20 ft 24 kts 65°
2026-05-04 14:28 41.29373 2.07647 20 ft 24 kts 67°
2026-05-04 14:29 41.29516 2.08068 20 ft 25 kts 65°
2026-05-04 14:29 41.29623 2.08476 20 ft 17 kts 90°
2026-05-04 14:30 41.29532 2.08571 20 ft 19 kts 156°
2026-05-04 14:30 41.29406 2.08648 20 ft 19 kts 155°
2026-05-04 14:30 41.29131 2.08814 20 ft 22 kts 155°
2026-05-04 14:31 41.28989 2.08899 19 ft 20 kts 156°
2026-05-04 14:31 41.29010 2.09161 19 ft 14 kts 65°
2026-05-04 14:32 41.29125 2.09496 18 ft 21 kts 65°
2026-05-04 14:32 41.29187 2.09680 18 ft 21 kts 66°
2026-05-04 14:32 41.29235 2.09822 18 ft 16 kts 65°
2026-05-04 14:32 41.29293 2.09954 17 ft 16 kts 58°
2026-05-04 14:33 41.29324 2.10074 17 ft 10 kts 98°
2026-05-04 14:33 41.29308 2.10145 17 ft 6 kts 110°
2026-05-04 14:33 41.29289 2.10215 17 ft 11 kts 110°
2026-05-04 14:33 41.29243 2.10309 17 ft 9 kts 153°
2026-05-04 14:34 41.29211 2.10296 17 ft 0 kts 245°
2026-05-04 14:34 41.29206 2.10283 17 ft 15 kts 245°
2026-05-04 14:35 41.29034 2.09784 18 ft 100 kts 246°
2026-05-04 14:35 41.28664 2.08666 128 ft 153 kts 244°
2026-05-04 14:35 41.28220 2.07415 874 ft 151 kts 232°
2026-05-04 14:35 41.27432 2.06547 1625 ft 151 kts 204°
2026-05-04 14:36 41.26414 2.06367 2165 ft 157 kts 179°
2026-05-04 14:36 41.25260 2.06405 2599 ft 173 kts 180°
2026-05-04 14:36 41.24000 2.06370 3046 ft 190 kts 183°
2026-05-04 14:36 41.22621 2.06263 3516 ft 207 kts 185°
2026-05-04 14:37 41.21150 2.06108 4085 ft 219 kts 186°
2026-05-04 14:37 41.19617 2.05930 4756 ft 228 kts 187°
2026-05-04 14:37 41.18069 2.05742 5736 ft 224 kts 187°
2026-05-04 14:37 41.16525 2.05633 6594 ft 227 kts 185°
2026-05-04 14:38 41.14915 2.05550 7257 ft 239 kts 185°
2026-05-04 14:38 41.13238 2.05482 8143 ft 243 kts 182°
2026-05-04 14:38 41.11608 2.06070 8943 ft 257 kts 150°
2026-05-04 14:38 41.10465 2.07895 9803 ft 272 kts 117°
2026-05-04 14:39 41.10163 2.10396 10667 ft 285 kts 88°
2026-05-04 14:39 41.10848 2.12893 11374 ft 300 kts 59°
2026-05-04 14:39 41.12075 2.15176 11848 ft 317 kts 55°
2026-05-04 14:40 41.14808 2.20196 12692 ft 353 kts 56°
2026-05-04 14:40 41.16223 2.22865 13328 ft 361 kts 56°
2026-05-04 14:40 41.17658 2.25611 14087 ft 365 kts 56°
2026-05-04 14:40 41.19097 2.28382 14856 ft 369 kts 56°
2026-05-04 14:41 41.20562 2.31219 15589 ft 373 kts 56°
2026-05-04 14:41 41.22028 2.34066 16285 ft 377 kts 56°
2026-05-04 14:41 41.24997 2.39850 17587 ft 387 kts 56°
2026-05-04 14:42 41.28038 2.45785 18880 ft 394 kts 56°
2026-05-04 14:42 41.29595 2.48831 19476 ft 399 kts 56°
2026-05-04 14:42 41.31161 2.51889 20033 ft 404 kts 56°
2026-05-04 14:43 41.32736 2.54980 20587 ft 409 kts 56°
2026-05-04 14:43 41.34334 2.58112 21095 ft 414 kts 56°
2026-05-04 14:43 41.35957 2.61297 21641 ft 419 kts 56°
2026-05-04 14:43 41.37590 2.64512 22183 ft 423 kts 56°
2026-05-04 14:44 41.39251 2.67785 22681 ft 428 kts 56°
2026-05-04 14:44 41.40924 2.71085 23133 ft 433 kts 56°
2026-05-04 14:44 41.42611 2.74413 23634 ft 437 kts 57°
2026-05-04 14:44 41.44308 2.77760 24095 ft 442 kts 57°
2026-05-04 14:45 41.46028 2.81165 24575 ft 445 kts 56°
2026-05-04 14:45 41.47751 2.84580 25044 ft 449 kts 56°
2026-05-04 14:45 41.49485 2.88020 25479 ft 453 kts 57°
2026-05-04 14:45 41.51260 2.91532 25921 ft 457 kts 57°
2026-05-04 14:46 41.53025 2.95031 26340 ft 460 kts 56°
2026-05-04 14:46 41.54810 2.98587 26733 ft 464 kts 56°
2026-05-04 14:46 41.56629 3.02207 27137 ft 468 kts 57°
2026-05-04 14:46 41.58429 3.05789 27536 ft 472 kts 57°
2026-05-04 14:47 41.60270 3.09464 27916 ft 476 kts 57°
2026-05-04 14:47 41.62118 3.13156 28273 ft 480 kts 57°
2026-05-04 14:47 41.63956 3.16836 28664 ft 483 kts 57°
2026-05-04 14:47 41.65837 3.20605 29045 ft 487 kts 57°
2026-05-04 14:48 41.67704 3.24353 29423 ft 490 kts 57°
2026-05-04 14:48 41.69599 3.28157 29801 ft 493 kts 57°
2026-05-04 14:48 41.71510 3.32021 30146 ft 497 kts 58°
2026-05-04 14:48 41.73278 3.35973 30516 ft 500 kts 63°
2026-05-04 14:49 41.74867 3.40095 30889 ft 501 kts 67°
2026-05-04 14:49 41.76308 3.44322 31276 ft 503 kts 68°
2026-05-04 14:49 41.77716 3.48615 31649 ft 506 kts 69°
2026-05-04 14:49 41.79123 3.52932 32005 ft 508 kts 68°
2026-05-04 14:50 41.80535 3.57254 32381 ft 510 kts 69°
2026-05-04 14:50 41.81955 3.61568 32858 ft 510 kts 68°
2026-05-04 14:50 41.83395 3.65938 33370 ft 509 kts 69°
2026-05-04 14:50 41.84820 3.70250 33853 ft 508 kts 69°
2026-05-04 14:51 41.86232 3.74536 34316 ft 507 kts 69°
2026-05-04 14:51 41.87640 3.78825 34702 ft 506 kts 69°
2026-05-04 14:51 41.89061 3.83161 35085 ft 505 kts 69°
2026-05-04 14:51 41.90460 3.87442 35466 ft 504 kts 69°
2026-05-04 14:52 41.91857 3.91710 35831 ft 503 kts 69°
2026-05-04 14:52 41.93249 3.95969 36178 ft 502 kts 69°
2026-05-04 14:52 41.94655 4.00278 36543 ft 502 kts 69°
2026-05-04 14:52 41.96049 4.04563 36855 ft 504 kts 69°
2026-05-04 14:53 41.97445 4.08853 37161 ft 506 kts 68°
2026-05-04 14:53 41.98852 4.13197 37485 ft 507 kts 68°
2026-05-04 14:53 42.00255 4.17527 37803 ft 508 kts 68°
2026-05-04 14:53 42.01667 4.21894 37926 ft 510 kts 68°
2026-05-04 14:54 42.04484 4.30594 37929 ft 510 kts 66°
2026-05-04 14:54 42.07877 4.38921 37929 ft 512 kts 57°
2026-05-04 14:55 42.12236 4.46447 37924 ft 510 kts 45°
2026-05-04 14:55 42.17419 4.53071 37929 ft 508 kts 39°
2026-05-04 14:56 42.22705 4.59325 37936 ft 509 kts 38°
2026-05-04 14:56 42.28008 4.65659 37934 ft 508 kts 39°
2026-05-04 14:57 42.33278 4.72020 37933 ft 509 kts 40°
2026-05-04 14:57 42.38530 4.78393 37941 ft 508 kts 40°
2026-05-04 14:58 42.43761 4.84759 37942 ft 508 kts 40°
2026-05-04 14:58 42.49015 4.91165 37944 ft 508 kts 40°
2026-05-04 14:59 42.54258 4.97576 37955 ft 507 kts 40°
2026-05-04 15:00 42.62062 5.07144 37948 ft 506 kts 40°
2026-05-04 15:00 42.67294 5.13575 37949 ft 506 kts 40°
2026-05-04 15:01 42.75103 5.23209 37956 ft 505 kts 40°
2026-05-04 15:01 42.80298 5.29634 37956 ft 505 kts 39°
2026-05-04 15:02 42.85453 5.36026 37957 ft 504 kts 40°
2026-05-04 15:02 42.90642 5.42472 37967 ft 506 kts 39°
2026-05-04 15:03 42.95831 5.48938 37974 ft 506 kts 39°
2026-05-04 15:03 43.01012 5.55409 37979 ft 506 kts 39°
2026-05-04 15:04 43.06189 5.61887 37981 ft 505 kts 40°
2026-05-04 15:04 43.11366 5.68384 37979 ft 505 kts 40°
2026-05-04 15:05 43.16567 5.74930 37986 ft 504 kts 40°
2026-05-04 15:05 43.21718 5.81425 37986 ft 504 kts 40°
2026-05-04 15:06 43.26859 5.87925 37989 ft 504 kts 40°
2026-05-04 15:07 43.34714 5.97599 37993 ft 499 kts 33°
2026-05-04 15:07 43.40683 6.02325 37992 ft 489 kts 17°
2026-05-04 15:08 43.47132 6.04849 37991 ft 476 kts
2026-05-04 15:08 43.53661 6.05619 37996 ft 470 kts 356°
2026-05-04 15:09 43.60196 6.06153 38001 ft 471 kts 357°
2026-05-04 15:09 43.66778 6.06785 38003 ft 471 kts 358°
2026-05-04 15:10 43.76535 6.08902 38006 ft 480 kts
2026-05-04 15:11 43.86010 6.13759 38011 ft 487 kts 21°
2026-05-04 15:11 43.92096 6.17939 38016 ft 487 kts 22°
2026-05-04 15:12 43.98169 6.22146 38021 ft 487 kts 22°
2026-05-04 15:12 44.04242 6.26321 38029 ft 486 kts 21°
2026-05-04 15:13 44.10318 6.30498 38031 ft 485 kts 21°
2026-05-04 15:13 44.16356 6.34651 38036 ft 486 kts 21°
2026-05-04 15:14 44.22425 6.38840 38048 ft 485 kts 21°
2026-05-04 15:14 44.28481 6.43022 38051 ft 484 kts 21°
2026-05-04 15:15 44.34515 6.47201 38055 ft 485 kts 22°
2026-05-04 15:15 44.40548 6.51394 38049 ft 484 kts 21°
2026-05-04 15:16 44.49598 6.57699 38042 ft 483 kts 21°
2026-05-04 15:17 44.58596 6.63981 38055 ft 483 kts 22°
2026-05-04 15:17 44.67662 6.70340 38065 ft 483 kts 22°
2026-05-04 15:18 44.73679 6.74433 38084 ft 480 kts 18°
2026-05-04 15:19 44.83227 6.78098 38080 ft 468 kts
2026-05-04 15:19 44.92876 6.78309 38069 ft 459 kts 351°
2026-05-04 15:20 44.99229 6.77829 38072 ft 458 kts 351°
2026-05-04 15:20 45.05603 6.77373 38079 ft 459 kts 351°
2026-05-04 15:21 45.11991 6.76942 38069 ft 459 kts 351°
2026-05-04 15:22 45.21592 6.76296 38059 ft 461 kts 352°
2026-05-04 15:22 45.31229 6.75650 38056 ft 461 kts 352°
2026-05-04 15:23 45.37615 6.75279 38067 ft 464 kts 355°
2026-05-04 15:23 45.44096 6.76175 38072 ft 473 kts
2026-05-04 15:24 45.50475 6.78937 38083 ft 480 kts 19°
2026-05-04 15:24 45.56379 6.83331 38084 ft 483 kts 27°
2026-05-04 15:25 45.62153 6.88222 38080 ft 481 kts 28°
2026-05-04 15:26 45.70764 6.95464 38072 ft 480 kts 27°
2026-05-04 15:26 45.79454 7.02740 38093 ft 480 kts 27°
2026-05-04 15:27 45.88108 7.10006 38092 ft 480 kts 27°
2026-05-04 15:28 45.96726 7.17274 38100 ft 480 kts 27°
2026-05-04 15:29 46.05330 7.24561 38096 ft 479 kts 27°
2026-05-04 15:30 46.25415 7.41676 38069 ft 477 kts 28°
2026-05-04 15:31 46.33989 7.49028 38076 ft 477 kts 28°
2026-05-04 15:32 46.48244 7.61313 38073 ft 476 kts 28°
2026-05-04 15:34 46.62559 7.73424 38072 ft 475 kts 26°
2026-05-04 15:34 46.71325 7.80117 38064 ft 473 kts 25°
2026-05-04 15:35 46.80047 7.86814 38042 ft 473 kts 26°
2026-05-04 15:36 46.88753 7.93536 38042 ft 471 kts 26°
2026-05-04 15:36 46.94527 7.98009 38029 ft 471 kts 26°
2026-05-04 15:37 47.00314 8.02504 38051 ft 471 kts 26°
2026-05-04 15:37 47.06140 8.07041 38029 ft 471 kts 26°
2026-05-04 15:38 47.11957 8.11583 38049 ft 471 kts 26°
2026-05-04 15:38 47.17706 8.16082 38016 ft 470 kts 26°
2026-05-04 15:39 47.23491 8.20619 38008 ft 470 kts 26°
2026-05-04 15:40 47.32104 8.27397 38005 ft 469 kts 26°
2026-05-04 15:40 47.37898 8.31971 37987 ft 470 kts 26°
2026-05-04 15:41 47.43666 8.36537 37981 ft 471 kts 26°
2026-05-04 15:41 47.49426 8.41107 37970 ft 471 kts 26°
2026-05-04 15:42 47.55170 8.45674 37970 ft 471 kts 26°
2026-05-04 15:42 47.60926 8.50264 37973 ft 471 kts 26°
2026-05-04 15:43 47.66673 8.54858 37966 ft 470 kts 26°
2026-05-04 15:43 47.72440 8.59479 37967 ft 470 kts 27°
2026-05-04 15:44 47.78205 8.64112 37970 ft 470 kts 26°
2026-05-04 15:44 47.83948 8.68737 37972 ft 470 kts 27°
2026-05-04 15:45 47.89671 8.73358 37972 ft 471 kts 27°
2026-05-04 15:45 47.95433 8.78024 37968 ft 470 kts 27°
2026-05-04 15:46 48.01204 8.82708 37959 ft 470 kts 28°
2026-05-04 15:46 48.04134 8.84837 37817 ft 471 kts 20°
2026-05-04 15:46 48.07216 8.86254 37239 ft 467 kts 12°
2026-05-04 15:46 48.10349 8.87356 36660 ft 463 kts 11°
2026-05-04 15:47 48.13475 8.88396 36220 ft 460 kts 11°
2026-05-04 15:47 48.16608 8.89448 35774 ft 460 kts 11°
2026-05-04 15:47 48.19749 8.90527 35324 ft 461 kts 11°
2026-05-04 15:47 48.22863 8.91617 34876 ft 463 kts 11°
2026-05-04 15:48 48.25964 8.92713 34286 ft 464 kts 11°
2026-05-04 15:48 48.29107 8.93832 33595 ft 465 kts 11°
2026-05-04 15:48 48.35420 8.96089 32221 ft 468 kts 11°
2026-05-04 15:49 48.38562 8.97214 31546 ft 469 kts 12°
2026-05-04 15:49 48.41758 8.98363 30855 ft 471 kts 12°
2026-05-04 15:49 48.44945 8.99480 30174 ft 472 kts 10°
2026-05-04 15:49 48.48199 9.00241 29484 ft 472 kts
2026-05-04 15:50 48.51442 9.00738 28869 ft 472 kts
2026-05-04 15:50 48.54712 9.01177 28321 ft 473 kts
2026-05-04 15:50 48.57991 9.01631 27775 ft 474 kts
2026-05-04 15:50 48.61261 9.02112 27232 ft 475 kts
2026-05-04 15:51 48.64551 9.02740 26686 ft 476 kts
2026-05-04 15:51 48.67814 9.03494 26145 ft 478 kts
2026-05-04 15:51 48.71096 9.04290 25606 ft 478 kts
2026-05-04 15:51 48.74410 9.05098 25071 ft 479 kts
2026-05-04 15:52 48.77704 9.05897 24530 ft 480 kts
2026-05-04 15:52 48.80981 9.06686 23988 ft 476 kts
2026-05-04 15:52 48.84230 9.07467 23450 ft 464 kts
2026-05-04 15:52 48.87376 9.08219 23024 ft 452 kts
2026-05-04 15:53 48.90430 9.08771 22639 ft 439 kts
2026-05-04 15:53 48.93479 9.09212 22249 ft 430 kts
2026-05-04 15:53 48.96414 9.09612 21873 ft 427 kts
2026-05-04 15:53 48.99391 9.10023 21461 ft 425 kts
2026-05-04 15:54 49.02311 9.10433 21029 ft 422 kts
2026-05-04 15:54 49.05239 9.10848 20592 ft 420 kts
2026-05-04 15:54 49.08109 9.11258 20136 ft 416 kts
2026-05-04 15:54 49.10988 9.11670 19620 ft 410 kts
2026-05-04 15:55 49.13821 9.12075 19106 ft 403 kts
2026-05-04 15:55 49.16597 9.12471 18602 ft 398 kts
2026-05-04 15:55 49.19298 9.12858 18104 ft 392 kts
2026-05-04 15:55 49.22004 9.13245 17597 ft 388 kts
2026-05-04 15:56 49.24695 9.13631 17093 ft 384 kts
2026-05-04 15:56 49.27338 9.14039 16490 ft 384 kts
2026-05-04 15:56 49.29957 9.14712 15870 ft 383 kts 11°
2026-05-04 15:56 49.32558 9.15591 15248 ft 381 kts 12°
2026-05-04 15:57 49.35117 9.16506 14634 ft 380 kts 13°
2026-05-04 15:57 49.37693 9.17433 14014 ft 378 kts 13°
2026-05-04 15:57 49.40239 9.18346 13397 ft 377 kts 13°
2026-05-04 15:57 49.42796 9.19261 12781 ft 375 kts 13°
2026-05-04 15:58 49.45312 9.20158 12167 ft 373 kts 13°
2026-05-04 15:58 49.47847 9.21060 11547 ft 371 kts 13°
2026-05-04 15:58 49.50349 9.21952 10934 ft 370 kts 13°
2026-05-04 15:58 49.52857 9.22846 10334 ft 367 kts 13°
2026-05-04 15:59 49.55291 9.23715 10099 ft 353 kts 13°
2026-05-04 15:59 49.57612 9.24544 10053 ft 334 kts 13°
2026-05-04 15:59 49.59827 9.25335 9993 ft 317 kts 13°
2026-05-04 15:59 49.61932 9.26088 9944 ft 304 kts 13°
2026-05-04 16:00 49.64006 9.26831 9943 ft 304 kts 13°
2026-05-04 16:00 49.66046 9.27562 9940 ft 303 kts 13°
2026-05-04 16:00 49.68111 9.28304 9940 ft 303 kts 13°
2026-05-04 16:00 49.70156 9.29039 9855 ft 304 kts 13°
2026-05-04 16:01 49.72207 9.29776 9714 ft 302 kts 12°
2026-05-04 16:01 49.74274 9.30520 9566 ft 301 kts 12°
2026-05-04 16:01 49.76300 9.31249 9418 ft 300 kts 12°
2026-05-04 16:01 49.78331 9.31981 9271 ft 299 kts 12°
2026-05-04 16:02 49.80360 9.32712 9123 ft 298 kts 12°
2026-05-04 16:02 49.82392 9.33374 8972 ft 297 kts
2026-05-04 16:02 49.86155 9.31521 8668 ft 289 kts 316°
2026-05-04 16:03 49.87373 9.29078 8521 ft 284 kts 294°
2026-05-04 16:03 49.88011 9.26205 8380 ft 282 kts 283°
2026-05-04 16:03 49.88527 9.23301 8233 ft 281 kts 283°
2026-05-04 16:03 49.89046 9.20378 8080 ft 275 kts 283°
2026-05-04 16:04 49.89551 9.17602 7927 ft 264 kts 284°
2026-05-04 16:04 49.90542 9.12313 7618 ft 245 kts 284°
2026-05-04 16:04 49.91018 9.09790 7469 ft 245 kts 284°
2026-05-04 16:05 49.91547 9.07288 7313 ft 245 kts 295°
2026-05-04 16:05 49.92704 9.05375 7155 ft 248 kts 329°
2026-05-04 16:05 49.95879 9.03285 6736 ft 247 kts 339°
2026-05-04 16:06 49.97495 9.02484 6494 ft 242 kts 343°
2026-05-04 16:06 50.01738 9.00616 5831 ft 232 kts 343°
2026-05-04 16:07 50.03796 8.99727 5504 ft 227 kts 343°
2026-05-04 16:07 50.08057 8.97282 4924 ft 206 kts 325°
2026-05-04 16:08 50.09218 8.96014 4853 ft 198 kts 323°
2026-05-04 16:08 50.10737 8.90691 4334 ft 188 kts 272°
2026-05-04 16:09 50.10503 8.86666 3996 ft 187 kts 257°
2026-05-04 16:09 50.09789 8.82888 3518 ft 176 kts 252°
2026-05-04 16:10 50.08981 8.79330 3058 ft 171 kts 251°
2026-05-04 16:11 50.07782 8.74367 2451 ft 160 kts 250°
2026-05-04 16:11 50.07388 8.72741 2237 ft 160 kts 251°
2026-05-04 16:12 50.06232 8.67947 1607 ft 153 kts 251°
2026-05-04 16:12 50.05253 8.63872 1060 ft 123 kts 251°
2026-05-04 16:13 50.04655 8.61370 757 ft 123 kts 249°
2026-05-04 16:13 50.04058 8.58878 416 ft 122 kts 249°
2026-05-04 16:14 50.03585 8.56893 357 ft 67 kts 250°
2026-05-04 16:14 50.03437 8.56061 351 ft 23 kts 281°
2026-05-04 16:15 50.03475 8.55735 350 ft 0 kts 298°
2026-05-04 16:17 50.03492 8.55525 349 ft 14 kts 269°
2026-05-04 16:18 50.03382 8.54999 346 ft 16 kts 251°
2026-05-04 16:18 50.03339 8.54821 345 ft 18 kts 249°
2026-05-04 16:19 50.03473 8.54387 345 ft 18 kts 340°
2026-05-04 16:19 50.03645 8.54320 346 ft 9 kts 30°
2026-05-04 16:20 50.03733 8.54635 348 ft 10 kts 68°
2026-05-04 16:20 50.03789 8.54871 349 ft 14 kts 71°
2026-05-04 16:21 50.03890 8.55291 352 ft 9 kts 69°
2026-05-04 16:22 50.03905 8.55350 352 ft 0 kts 69°
2026-05-04 16:22 50.03954 8.55452 353 ft 9 kts 16°
2026-05-04 16:23 50.04105 8.55509 355 ft 3 kts 169°
2026-05-04 16:24 50.04047 8.55542 354 ft 0 kts 160°